Regional Weather Roundup
Issued by NWS

Home | Current Version | Previous Version | Text Only | Print | Product List | Glossary On
Versions: 1 2 3 4 5 6 7 8 9 10 11 12 13 14 15 16 17 18 19 20 21 22 23 24 25 26 27 28 29 30 31 32 33 34 35 36 37 38 39 40 41 42 43 44 45 46 47 48 49 50
000
ASUS46 KSTO 120104
RWRCA

NORTHERN AND CENTRAL CA REGIONAL WEATHER ROUNDUP
NATIONAL WEATHER SERVICE SACRAMENTO CA
500 PM PST MON DEC 11 2017

NOTE: FAIR INDICATES FEW OR NO CLOUDS BELOW 12,000 FEET WITH NO
SIGNIFICANT WEATHER AND/OR OBSTRUCTIONS TO VISIBILITY.

CAZ001-003-120200-
NORTHWEST AREA

CITY           SKY/WX    TMP DP  RH WIND       PRES   REMARKS
CRESCENT CITY  CLEAR     51  44  77 N3        30.32R HAZE
UKIAH          CLOUDY    51  38  60 CALM      30.30R
$$

CAZ006-505>513-120200-
BAY AREA

CITY           SKY/WX    TMP DP  RH WIND       PRES   REMARKS
SANTA ROSA     PTCLDY    53  42  66 CALM      30.27R
SAN RAFAEL     N/A       61  MM  MM MISG
NAPA           PTCLDY    57  35  43 E8        30.28R
CONCORD        MOCLDY    61  35  37 NW3       30.28R
OAKLAND CITY   N/A      MM  MM  MM MISG
OAKLAND        MOCLDY    56  44  64 W5        30.27S
SAN FRAN CITY  N/A       62  MM  37 MISG
SAN FRAN ARPT  MOCLDY    62  33  33 CALM      30.27R
LIVERMORE      MOCLDY    58  34  40 NE9       30.27R
HAYWARD        PTCLDY    61  33  35 CALM      30.27R
REDWOOD CITY   N/A       63  MM  47 MISG
MOFFETT ARPT   MOCLDY    57  45  64 N3        30.27R
SAN JOSE ARPT  MOCLDY    63  34  33 W3        30.26R
$$
CAZ034-037-514>518-120200-
CENTRAL COAST

CITY           SKY/WX    TMP DP  RH WIND       PRES   REMARKS
WATSONVILLE    MOCLDY    66  34  30 E3        30.23R
SALINAS        MOCLDY    70  24  17 SW6       30.22R
MONTEREY       PTCLDY    64  26  23 SE5       30.23R
SAN LUIS OBISP PTCLDY    67  27  22 E3        30.19R
SANTA MARIA    CLEAR     62  33  33 CALM      30.20R
$$
CAZ015-016-120200-
NORTHERN SACRAMENTO VALLEY

CITY           SKY/WX    TMP DP  RH WIND       PRES   REMARKS
REDDING        PTCLDY    59  31  34 NW3       30.28R
RED BLUFF      PTCLDY    61  29  29 NE3       30.28S
OROVILLE       MOCLDY    55  39  54 CALM      30.29S
$$
CAZ016>018-120200-
SOUTHERN SACRAMENTO VALLEY

CITY           SKY/WX    TMP DP  RH WIND       PRES   REMARKS
AUBURN         PTCLDY    46  37  71 CALM      30.29S
BEALE AFB      CLEAR     53  38  55 E3        30.27R
LINCOLN        FAIR      52  34  50 CALM      30.28R
MARYSVILLE     MOCLDY    53  42  66 CALM      30.29R
SAC INTL ARPT  MOCLDY    55  37  50 CALM      30.28R
MATHER AIRPORT MOCLDY    57  37  47 CALM      30.28S
DOWNTOWN SAC   N/A       56  MM  MM MISG
SAC EXEC ARPT  MOCLDY    55  36  48 CALM      30.28S
VACAVILLE      MOCLDY    58  37  45 CALM      30.30R
TRAVIS AFB     MOCLDY    55  38  52 CALM      30.27S
$$
CAZ019>021-120200-
SAN JOAQUIN VALLEY

CITY           SKY/WX    TMP DP  RH WIND       PRES   REMARKS
STOCKTON       MOCLDY    56  39  53 W6        30.28S
MODESTO        MOCLDY    54  43  66 CALM      30.28S
MERCED         MOCLDY    55  40  56 N3        30.29R
LEMOORE        MOCLDY    50  35  56 N3        30.30S HAZE
FRESNO         MOCLDY    57  40  52 CALM      30.29S HAZE
HANFORD        MOCLDY    50  43  77 CALM      30.31R HAZE
PORTERVILLE    MOCLDY    54  40  59 W7        30.30R HAZE
BAKERSFIELD    PTCLDY    60  34  37 CALM      30.29R HAZE
$$
CAZ011-012-071-120200-
NORTHERN MOUNTAINS

CITY           SKY/WX    TMP DP  RH WIND       PRES   REMARKS
YREKA          PTCLDY    33  23  66 SE3       30.45S
MOUNT SHASTA   PTCLDY    38  26  62 CALM      30.41S
ALTURAS        PTCLDY    43  17  35 CALM      30.44R
$$
CAZ011-012-071-120200-
SIERRA NEVADA MTNS

CITY           SKY/WX    TMP DP  RH WIND       PRES   REMARKS
BLUE CANYON    PTCLDY    56   5  13 NE6       30.41R
TAHOE VLY ARPT PTCLDY    33  25  72 CALM      30.47S
MAMMOTH LAKES  FAIR      37   1  22 CALM      30.50R
$$




USA.gov is the U.S. government's official web portal to all federal, state and local government web resources and services.